Time,TemperatureF,DewpointF,PressureIn,WindDirection,WindDirectionDegrees,WindSpeedMPH,WindSpeedGustMPH,Humidity,HourlyPrecipIn,Conditions,Clouds,dailyrainin,SoftwareType,DateUTC
2013-07-12 00:01:00,72.1,57.9,29.89,SE,145,0.0,0.0,61,0.00,,,0.00,WeatherCatV1.15B25,2013-07-12 05:01:00,
2013-07-12 00:06:00,71.9,57.7,29.89,SE,145,0.0,0.0,61,0.00,,,0.00,WeatherCatV1.15B25,2013-07-12 05:06:00,
2013-07-12 00:11:00,71.7,58.0,29.89,SSE,152,0.0,0.0,62,0.00,,,0.00,WeatherCatV1.15B25,2013-07-12 05:11:00,
2013-07-12 00:16:00,71.6,57.9,29.89,SW,221,0.0,0.0,62,0.00,,,0.00,WeatherCatV1.15B25,2013-07-12 05:16:00,
2013-07-12 00:21:00,71.5,57.8,29.89,SE,139,0.0,0.0,62,0.00,,,0.00,WeatherCatV1.15B25,2013-07-12 05:21:00,
2013-07-12 00:26:00,71.5,57.8,29.89,SSW,197,0.0,0.0,62,0.00,,,0.00,WeatherCatV1.15B25,2013-07-12 05:26:00,
2013-07-12 00:31:00,71.4,57.7,29.90,SSE,156,0.0,0.0,62,0.00,,,0.00,WeatherCatV1.15B25,2013-07-12 05:31:00,
2013-07-12 00:36:00,71.3,57.6,29.89,SSE,161,0.0,0.0,62,0.00,,,0.00,WeatherCatV1.15B25,2013-07-12 05:36:00,
2013-07-12 00:41:00,71.2,57.9,29.89,South,182,0.0,0.0,63,0.00,,,0.00,WeatherCatV1.15B25,2013-07-12 05:41:00,
2013-07-12 00:46:00,71.1,57.9,29.89,SSE,151,0.0,0.0,63,0.00,,,0.00,WeatherCatV1.15B25,2013-07-12 05:46:00,
2013-07-12 00:51:00,71.1,57.9,29.89,South,174,0.0,0.0,63,0.00,,,0.00,WeatherCatV1.15B25,2013-07-12 05:51:00,
2013-07-12 00:56:00,70.9,57.7,29.89,South,174,0.0,0.0,63,0.00,,,0.00,WeatherCatV1.15B25,2013-07-12 05:56:00,
2013-07-12 01:01:00,70.8,57.6,29.89,SE,144,0.0,0.0,63,0.00,,,0.00,WeatherCatV1.15B25,2013-07-12 06:01:00,
2013-07-12 01:06:00,70.7,57.5,29.89,SSW,197,0.0,0.0,63,0.00,,,0.00,WeatherCatV1.15B25,2013-07-12 06:06:00,
2013-07-12 01:11:00,70.5,57.7,29.89,SSW,208,0.0,0.0,64,0.00,,,0.00,WeatherCatV1.15B25,2013-07-12 06:11:00,
2013-07-12 01:16:00,70.6,57.4,29.89,SSE,165,0.0,0.0,63,0.00,,,0.00,WeatherCatV1.15B25,2013-07-12 06:16:00,
2013-07-12 01:21:00,70.6,57.4,29.89,SSE,162,0.0,0.0,63,0.00,,,0.00,WeatherCatV1.15B25,2013-07-12 06:21:00,
2013-07-12 01:26:00,70.6,57.4,29.89,SE,141,0.0,0.0,63,0.00,,,0.00,WeatherCatV1.15B25,2013-07-12 06:26:00,
2013-07-12 01:31:00,70.5,57.7,29.89,SSE,151,0.0,0.0,64,0.00,,,0.00,WeatherCatV1.15B25,2013-07-12 06:31:00,
2013-07-12 01:36:00,70.4,57.6,29.89,SE,135,0.0,0.0,64,0.00,,,0.00,WeatherCatV1.15B25,2013-07-12 06:36:00,
2013-07-12 01:41:00,70.4,57.6,29.89,SSE,152,0.0,0.0,64,0.00,,,0.00,WeatherCatV1.15B25,2013-07-12 06:41:00,
2013-07-12 01:46:00,70.4,57.6,29.89,SW,236,0.0,0.0,64,0.00,,,0.00,WeatherCatV1.15B25,2013-07-12 06:46:00,
2013-07-12 01:51:00,70.3,57.5,29.89,SSE,153,0.0,0.0,64,0.00,,,0.00,WeatherCatV1.15B25,2013-07-12 06:51:00,
2013-07-12 01:56:00,70.2,57.9,29.89,South,174,0.0,0.0,65,0.00,,,0.00,WeatherCatV1.15B25,2013-07-12 06:56:00,
2013-07-12 02:01:00,70.0,57.7,29.89,SSE,156,0.0,0.0,65,0.00,,,0.00,WeatherCatV1.15B25,2013-07-12 07:01:00,
2013-07-12 02:06:00,70.0,57.7,29.89,SSW,197,0.0,0.0,65,0.00,,,0.00,WeatherCatV1.15B25,2013-07-12 07:06:00,
2013-07-12 02:11:00,70.1,57.3,29.89,SSE,162,0.0,0.0,64,0.00,,,0.00,WeatherCatV1.15B25,2013-07-12 07:11:00,
2013-07-12 02:16:00,70.0,57.7,29.89,South,171,0.0,0.0,65,0.00,,,0.00,WeatherCatV1.15B25,2013-07-12 07:16:00,
2013-07-12 02:21:00,70.0,57.7,29.89,SW,219,0.0,0.0,65,0.00,,,0.00,WeatherCatV1.15B25,2013-07-12 07:21:00,
2013-07-12 02:26:00,69.8,57.5,29.89,SSE,155,0.0,0.0,65,0.00,,,0.00,WeatherCatV1.15B25,2013-07-12 07:26:00,
2013-07-12 02:31:00,69.7,57.4,29.89,SSW,195,0.0,0.0,65,0.00,,,0.00,WeatherCatV1.15B25,2013-07-12 07:31:00,
2013-07-12 02:36:00,69.8,57.5,29.89,SW,215,0.0,0.0,65,0.00,,,0.00,WeatherCatV1.15B25,2013-07-12 07:36:00,
2013-07-12 02:41:00,69.5,57.2,29.89,South,176,0.0,0.0,65,0.00,,,0.00,WeatherCatV1.15B25,2013-07-12 07:41:00,
2013-07-12 02:46:00,69.5,57.2,29.89,South,173,0.0,0.0,65,0.00,,,0.00,WeatherCatV1.15B25,2013-07-12 07:46:00,
2013-07-12 02:51:00,69.2,57.3,29.89,SSE,161,0.0,0.0,66,0.00,,,0.00,WeatherCatV1.15B25,2013-07-12 07:51:00,
2013-07-12 02:56:00,69.1,57.3,29.89,South,171,0.0,0.0,66,0.00,,,0.00,WeatherCatV1.15B25,2013-07-12 07:56:00,
2013-07-12 03:01:00,69.2,57.3,29.89,SSE,166,0.0,0.0,66,0.00,,,0.00,WeatherCatV1.15B25,2013-07-12 08:01:00,
2013-07-12 03:06:00,69.1,57.3,29.89,SSW,206,0.0,0.0,66,0.00,,,0.00,WeatherCatV1.15B25,2013-07-12 08:06:00,
2013-07-12 03:11:00,68.9,57.1,29.89,SW,219,7.0,10.0,66,0.00,,,0.00,WeatherCatV1.15B25,2013-07-12 08:11:00,
2013-07-12 03:16:00,68.9,57.5,29.88,SE,146,6.0,12.0,67,0.00,,,0.00,WeatherCatV1.15B25,2013-07-12 08:16:00,
2013-07-12 03:21:00,68.8,57.4,29.88,SSE,151,6.0,14.0,67,0.00,,,0.00,WeatherCatV1.15B25,2013-07-12 08:21:00,
2013-07-12 03:26:00,68.7,57.3,29.88,South,181,9.0,15.0,67,0.00,,,0.00,WeatherCatV1.15B25,2013-07-12 08:26:00,
2013-07-12 03:31:00,68.6,57.2,29.88,SSW,210,9.0,13.0,67,0.00,,,0.00,WeatherCatV1.15B25,2013-07-12 08:31:00,
2013-07-12 03:36:00,68.5,57.5,29.88,SSE,165,6.0,11.0,68,0.00,,,0.00,WeatherCatV1.15B25,2013-07-12 08:36:00,
2013-07-12 03:41:00,68.5,57.5,29.88,SSE,150,6.0,9.0,68,0.00,,,0.00,WeatherCatV1.15B25,2013-07-12 08:41:00,
2013-07-12 03:46:00,68.5,57.5,29.89,SE,137,8.0,10.0,68,0.00,,,0.00,WeatherCatV1.15B25,2013-07-12 08:46:00,
2013-07-12 03:51:00,68.3,57.3,29.89,SSE,155,7.0,9.0,68,0.00,,,0.00,WeatherCatV1.15B25,2013-07-12 08:51:00,
2013-07-12 03:56:00,68.3,57.7,29.88,SSE,152,5.0,10.0,69,0.00,,,0.00,WeatherCatV1.15B25,2013-07-12 08:56:00,
2013-07-12 04:01:00,68.3,57.7,29.88,South,177,3.0,12.0,69,0.00,,,0.00,WeatherCatV1.15B25,2013-07-12 09:01:00,
2013-07-12 04:06:00,68.3,57.3,29.88,SW,221,5.0,14.0,68,0.00,,,0.00,WeatherCatV1.15B25,2013-07-12 09:06:00,
2013-07-12 04:11:00,68.3,57.7,29.88,South,182,7.0,11.0,69,0.00,,,0.00,WeatherCatV1.15B25,2013-07-12 09:11:00,
2013-07-12 04:16:00,68.2,57.6,29.88,SSW,202,5.0,13.0,69,0.00,,,0.00,WeatherCatV1.15B25,2013-07-12 09:16:00,
2013-07-12 04:21:00,68.3,57.7,29.88,South,169,7.0,12.0,69,0.00,,,0.00,WeatherCatV1.15B25,2013-07-12 09:21:00,
2013-07-12 04:26:00,68.3,57.7,29.88,South,186,7.0,7.0,69,0.00,,,0.00,WeatherCatV1.15B25,2013-07-12 09:26:00,
2013-07-12 04:31:00,68.2,57.6,29.89,SE,140,5.0,12.0,69,0.00,,,0.00,WeatherCatV1.15B25,2013-07-12 09:31:00,
2013-07-12 04:36:00,68.2,58.0,29.89,SSE,154,6.0,13.0,70,0.00,,,0.00,WeatherCatV1.15B25,2013-07-12 09:36:00,
2013-07-12 04:41:00,68.1,57.9,29.89,SE,143,7.0,13.0,70,0.00,,,0.00,WeatherCatV1.15B25,2013-07-12 09:41:00,
2013-07-12 04:46:00,68.0,57.8,29.89,SSE,160,9.0,13.0,70,0.00,,,0.00,WeatherCatV1.15B25,2013-07-12 09:46:00,
2013-07-12 04:51:00,67.9,57.7,29.88,SE,141,8.0,12.0,70,0.00,,,0.00,WeatherCatV1.15B25,2013-07-12 09:51:00,
2013-07-12 04:56:00,68.0,57.8,29.88,SE,129,6.0,9.0,70,0.00,,,0.00,WeatherCatV1.15B25,2013-07-12 09:56:00,
2013-07-12 05:01:00,67.9,57.7,29.88,SSW,201,8.0,12.0,70,0.00,,,0.00,WeatherCatV1.15B25,2013-07-12 10:01:00,
2013-07-12 05:06:00,67.9,57.7,29.88,SSE,162,8.0,13.0,70,0.00,,,0.00,WeatherCatV1.15B25,2013-07-12 10:06:00,
2013-07-12 05:11:00,67.9,58.1,29.89,South,181,5.0,10.0,71,0.00,,,0.00,WeatherCatV1.15B25,2013-07-12 10:11:00,
2013-07-12 05:16:00,67.7,57.9,29.89,South,187,4.0,11.0,71,0.00,,,0.00,WeatherCatV1.15B25,2013-07-12 10:16:00,
2013-07-12 05:21:00,67.7,57.9,29.89,SSE,152,6.0,14.0,71,0.00,,,0.00,WeatherCatV1.15B25,2013-07-12 10:21:00,
2013-07-12 05:26:00,67.6,57.9,29.89,South,174,5.0,12.0,71,0.00,,,0.00,WeatherCatV1.15B25,2013-07-12 10:26:00,
2013-07-12 05:31:00,67.4,58.0,29.89,South,184,10.0,11.0,72,0.00,,,0.00,WeatherCatV1.15B25,2013-07-12 10:31:00,
2013-07-12 05:36:00,67.3,58.0,29.89,South,174,7.0,10.0,72,0.00,,,0.00,WeatherCatV1.15B25,2013-07-12 10:36:00,
2013-07-12 05:41:00,67.1,57.8,29.89,SSE,160,8.0,11.0,72,0.00,,,0.00,WeatherCatV1.15B25,2013-07-12 10:41:00,
2013-07-12 05:46:00,67.1,58.1,29.89,SSE,153,6.0,12.0,73,0.00,,,0.00,WeatherCatV1.15B25,2013-07-12 10:46:00,
2013-07-12 05:51:00,67.1,58.1,29.89,SSE,165,6.0,10.0,73,0.00,,,0.00,WeatherCatV1.15B25,2013-07-12 10:51:00,
2013-07-12 05:56:00,67.0,58.0,29.89,SSE,150,6.0,12.0,73,0.00,,,0.00,WeatherCatV1.15B25,2013-07-12 10:56:00,
2013-07-12 06:01:00,66.9,58.0,29.89,SSW,193,6.0,9.0,73,0.00,,,0.00,WeatherCatV1.15B25,2013-07-12 11:01:00,
2013-07-12 06:06:00,66.8,58.2,29.89,SE,142,4.0,10.0,74,0.00,,,0.00,WeatherCatV1.15B25,2013-07-12 11:06:00,
2013-07-12 06:11:00,66.7,58.1,29.89,SSE,150,9.0,12.0,74,0.00,,,0.00,WeatherCatV1.15B25,2013-07-12 11:11:00,
2013-07-12 06:16:00,66.8,58.2,29.89,South,187,11.0,13.0,74,0.00,,,0.00,WeatherCatV1.15B25,2013-07-12 11:16:00,
2013-07-12 06:21:00,66.8,58.2,29.88,SSE,163,7.0,10.0,74,0.00,,,0.00,WeatherCatV1.15B25,2013-07-12 11:21:00,
2013-07-12 06:26:00,66.8,58.2,29.88,SSW,195,8.0,11.0,74,0.00,,,0.00,WeatherCatV1.15B25,2013-07-12 11:26:00,
2013-07-12 06:31:00,66.9,58.3,29.88,South,176,5.0,12.0,74,0.00,,,0.00,WeatherCatV1.15B25,2013-07-12 11:31:00,
2013-07-12 06:36:00,66.8,58.6,29.88,SSE,155,7.0,12.0,75,0.00,,,0.00,WeatherCatV1.15B25,2013-07-12 11:36:00,
2013-07-12 06:41:00,66.8,58.6,29.88,SSE,158,6.0,10.0,75,0.00,,,0.00,WeatherCatV1.15B25,2013-07-12 11:41:00,
2013-07-12 06:46:00,66.9,58.7,29.88,SSE,157,6.0,12.0,75,0.00,,,0.00,WeatherCatV1.15B25,2013-07-12 11:46:00,
2013-07-12 06:51:00,67.0,58.8,29.88,SSE,153,9.0,14.0,75,0.00,,,0.00,WeatherCatV1.15B25,2013-07-12 11:51:00,
2013-07-12 06:56:00,67.1,58.9,29.89,SSE,150,6.0,15.0,75,0.00,,,0.00,WeatherCatV1.15B25,2013-07-12 11:56:00,
2013-07-12 07:01:00,67.3,58.7,29.88,South,169,11.0,13.0,74,0.00,,,0.00,WeatherCatV1.15B25,2013-07-12 12:01:00,
2013-07-12 07:06:00,67.5,58.9,29.88,SE,130,12.0,17.0,74,0.00,,,0.00,WeatherCatV1.15B25,2013-07-12 12:06:00,
2013-07-12 07:11:00,67.6,59.0,29.88,SSE,162,9.0,12.0,74,0.00,,,0.00,WeatherCatV1.15B25,2013-07-12 12:11:00,
2013-07-12 07:16:00,67.8,59.2,29.88,SE,137,5.0,14.0,74,0.00,,,0.00,WeatherCatV1.15B25,2013-07-12 12:16:00,
2013-07-12 07:21:00,68.0,59.0,29.89,SSE,149,9.0,12.0,73,0.00,,,0.00,WeatherCatV1.15B25,2013-07-12 12:21:00,
2013-07-12 07:26:00,68.3,59.3,29.89,SSE,156,9.0,12.0,73,0.00,,,0.00,WeatherCatV1.15B25,2013-07-12 12:26:00,
2013-07-12 07:31:00,68.5,59.5,29.89,South,191,5.0,17.0,73,0.00,,,0.00,WeatherCatV1.15B25,2013-07-12 12:31:00,
2013-07-12 07:36:00,68.8,59.8,29.89,SSW,202,10.0,12.0,73,0.00,,,0.00,WeatherCatV1.15B25,2013-07-12 12:36:00,
2013-07-12 07:41:00,69.1,59.7,29.89,South,184,9.0,17.0,72,0.00,,,0.00,WeatherCatV1.15B25,2013-07-12 12:41:00,
2013-07-12 07:46:00,69.3,60.3,29.89,South,180,6.0,12.0,73,0.00,,,0.00,WeatherCatV1.15B25,2013-07-12 12:46:00,
2013-07-12 07:51:00,69.6,60.2,29.89,SE,129,5.0,10.0,72,0.00,,,0.00,WeatherCatV1.15B25,2013-07-12 12:51:00,
2013-07-12 07:56:00,69.8,60.0,29.88,South,180,11.0,14.0,71,0.00,,,0.00,WeatherCatV1.15B25,2013-07-12 12:56:00,
2013-07-12 08:01:00,70.0,60.2,29.88,South,187,14.0,15.0,71,0.00,,,0.00,WeatherCatV1.15B25,2013-07-12 13:01:00,
2013-07-12 08:06:00,70.2,59.9,29.88,SSE,147,7.0,17.0,70,0.00,,,0.00,WeatherCatV1.15B25,2013-07-12 13:06:00,
2013-07-12 08:11:00,70.4,60.1,29.88,SSE,147,10.0,16.0,70,0.00,,,0.00,WeatherCatV1.15B25,2013-07-12 13:11:00,
2013-07-12 08:16:00,70.6,60.7,29.88,SSE,150,10.0,14.0,71,0.00,,,0.00,WeatherCatV1.15B25,2013-07-12 13:16:00,
2013-07-12 08:21:00,70.9,60.6,29.88,South,188,12.0,15.0,70,0.00,,,0.00,WeatherCatV1.15B25,2013-07-12 13:21:00,
2013-07-12 08:26:00,71.2,60.9,29.88,SSW,206,7.0,15.0,70,0.00,,,0.00,WeatherCatV1.15B25,2013-07-12 13:26:00,
2013-07-12 08:31:00,71.5,60.8,29.88,SE,136,17.0,18.0,69,0.00,,,0.00,WeatherCatV1.15B25,2013-07-12 13:31:00,
2013-07-12 08:36:00,71.7,61.0,29.88,SSW,197,9.0,11.0,69,0.00,,,0.00,WeatherCatV1.15B25,2013-07-12 13:36:00,
2013-07-12 08:41:00,72.0,61.3,29.88,SE,135,13.0,20.0,69,0.00,,,0.00,WeatherCatV1.15B25,2013-07-12 13:41:00,
2013-07-12 08:46:00,72.3,61.5,29.88,SW,229,12.0,21.0,69,0.00,,,0.00,WeatherCatV1.15B25,2013-07-12 13:46:00,
2013-07-12 08:51:00,72.6,61.4,29.88,SSW,192,8.0,17.0,68,0.00,,,0.00,WeatherCatV1.15B25,2013-07-12 13:51:00,
2013-07-12 08:56:00,72.9,61.7,29.88,South,188,11.0,17.0,68,0.00,,,0.00,WeatherCatV1.15B25,2013-07-12 13:56:00,
2013-07-12 09:01:00,73.2,62.0,29.88,SW,217,9.0,12.0,68,0.00,,,0.00,WeatherCatV1.15B25,2013-07-12 14:01:00,
2013-07-12 09:06:00,73.6,62.0,29.88,South,173,8.0,14.0,67,0.00,,,0.00,WeatherCatV1.15B25,2013-07-12 14:06:00,
2013-07-12 09:11:00,73.8,62.6,29.88,SW,222,13.0,13.0,68,0.00,,,0.00,WeatherCatV1.15B25,2013-07-12 14:11:00,
2013-07-12 09:16:00,73.9,61.8,29.88,SSW,203,10.0,18.0,66,0.00,,,0.00,WeatherCatV1.15B25,2013-07-12 14:16:00,
2013-07-12 09:21:00,74.0,61.9,29.88,SSW,208,5.0,14.0,66,0.00,,,0.00,WeatherCatV1.15B25,2013-07-12 14:21:00,
2013-07-12 09:26:00,74.3,62.6,29.88,SSE,160,9.0,15.0,67,0.00,,,0.00,WeatherCatV1.15B25,2013-07-12 14:26:00,
2013-07-12 09:31:00,74.5,62.4,29.88,WSW,239,8.0,17.0,66,0.00,,,0.00,WeatherCatV1.15B25,2013-07-12 14:31:00,
2013-07-12 09:36:00,74.8,62.7,29.88,SSE,152,6.0,18.0,66,0.00,,,0.00,WeatherCatV1.15B25,2013-07-12 14:36:00,
2013-07-12 09:41:00,75.1,63.4,29.88,SW,216,4.0,17.0,67,0.00,,,0.00,WeatherCatV1.15B25,2013-07-12 14:41:00,
2013-07-12 09:46:00,75.2,62.6,29.88,SSW,193,10.0,16.0,65,0.00,,,0.00,WeatherCatV1.15B25,2013-07-12 14:46:00,
2013-07-12 09:51:00,75.4,62.8,29.87,SSW,206,12.0,16.0,65,0.00,,,0.00,WeatherCatV1.15B25,2013-07-12 14:51:00,
2013-07-12 09:56:00,75.7,63.1,29.87,SSE,164,11.0,18.0,65,0.00,,,0.00,WeatherCatV1.15B25,2013-07-12 14:56:00,
2013-07-12 10:01:00,75.9,63.7,29.87,SSE,162,14.0,14.0,66,0.00,,,0.00,WeatherCatV1.15B25,2013-07-12 15:01:00,
2013-07-12 10:06:00,76.2,63.6,29.87,SSE,153,6.0,15.0,65,0.00,,,0.00,WeatherCatV1.15B25,2013-07-12 15:06:00,
2013-07-12 10:11:00,76.5,63.4,29.87,SSE,163,13.0,19.0,64,0.00,,,0.00,WeatherCatV1.15B25,2013-07-12 15:11:00,
2013-07-12 10:16:00,76.8,63.7,29.87,SW,219,10.0,15.0,64,0.00,,,0.00,WeatherCatV1.15B25,2013-07-12 15:16:00,
2013-07-12 10:21:00,77.2,63.6,29.87,South,187,13.0,14.0,63,0.00,,,0.00,WeatherCatV1.15B25,2013-07-12 15:21:00,
2013-07-12 10:26:00,77.5,63.4,29.87,SSW,212,12.0,14.0,62,0.00,,,0.00,WeatherCatV1.15B25,2013-07-12 15:26:00,
2013-07-12 10:31:00,77.8,63.7,29.87,SSW,201,7.0,16.0,62,0.00,,,0.00,WeatherCatV1.15B25,2013-07-12 15:31:00,
2013-07-12 10:36:00,78.0,64.4,29.86,SW,219,9.0,13.0,63,0.00,,,0.00,WeatherCatV1.15B25,2013-07-12 15:36:00,
2013-07-12 10:41:00,78.3,63.7,29.87,SSW,192,10.0,16.0,61,0.00,,,0.00,WeatherCatV1.15B25,2013-07-12 15:41:00,
2013-07-12 10:46:00,78.3,64.2,29.87,SW,235,9.0,18.0,62,0.00,,,0.00,WeatherCatV1.15B25,2013-07-12 15:46:00,
2013-07-12 10:51:00,78.6,64.5,29.87,East,92,11.0,16.0,62,0.00,,,0.00,WeatherCatV1.15B25,2013-07-12 15:51:00,
2013-07-12 10:56:00,78.9,64.3,29.87,SSW,209,8.0,16.0,61,0.00,,,0.00,WeatherCatV1.15B25,2013-07-12 15:56:00,
2013-07-12 11:01:00,78.9,63.8,29.86,SE,146,0.0,14.0,60,0.00,,,0.00,WeatherCatV1.15B25,2013-07-12 16:01:00,
2013-07-12 11:06:00,79.3,65.1,29.86,SSE,155,0.0,0.0,62,0.00,,,0.00,WeatherCatV1.15B25,2013-07-12 16:06:00,
2013-07-12 11:11:00,79.6,64.5,29.86,SSE,161,0.0,0.0,60,0.00,,,0.00,WeatherCatV1.15B25,2013-07-12 16:11:00,
2013-07-12 11:16:00,79.7,64.6,29.86,SSE,155,0.0,0.0,60,0.00,,,0.00,WeatherCatV1.15B25,2013-07-12 16:16:00,
2013-07-12 11:21:00,80.1,64.9,29.86,SSE,165,17.0,17.0,60,0.00,,,0.00,WeatherCatV1.15B25,2013-07-12 16:21:00,
2013-07-12 11:26:00,80.3,64.6,29.85,South,169,15.0,15.0,59,0.00,,,0.00,WeatherCatV1.15B25,2013-07-12 16:26:00,
2013-07-12 11:31:00,80.6,65.4,29.86,SW,220,13.0,15.0,60,0.00,,,0.00,WeatherCatV1.15B25,2013-07-12 16:31:00,
2013-07-12 11:36:00,80.9,66.2,29.86,SSW,210,7.0,13.0,61,0.00,,,0.00,WeatherCatV1.15B25,2013-07-12 16:36:00,
2013-07-12 11:41:00,81.3,65.6,29.85,SSW,200,15.0,19.0,59,0.00,,,0.00,WeatherCatV1.15B25,2013-07-12 16:41:00,
2013-07-12 11:46:00,81.5,65.8,29.85,South,191,12.0,13.0,59,0.00,,,0.00,WeatherCatV1.15B25,2013-07-12 16:46:00,
2013-07-12 11:51:00,81.6,66.3,29.85,SSE,166,13.0,13.0,60,0.00,,,0.00,WeatherCatV1.15B25,2013-07-12 16:51:00,
2013-07-12 11:56:00,81.4,65.2,29.85,SE,131,8.0,17.0,58,0.00,,,0.00,WeatherCatV1.15B25,2013-07-12 16:56:00,
2013-07-12 12:01:00,81.6,65.4,29.85,WSW,241,13.0,15.0,58,0.00,,,0.00,WeatherCatV1.15B25,2013-07-12 17:01:00,
2013-07-12 12:06:00,82.2,65.4,29.85,SSE,155,11.0,16.0,57,0.00,,,0.00,WeatherCatV1.15B25,2013-07-12 17:06:00,
2013-07-12 12:11:00,82.1,64.8,29.85,SSE,162,11.0,15.0,56,0.00,,,0.00,WeatherCatV1.15B25,2013-07-12 17:11:00,
2013-07-12 12:16:00,82.2,64.9,29.84,ESE,113,15.0,19.0,56,0.00,,,0.00,WeatherCatV1.15B25,2013-07-12 17:16:00,
2013-07-12 12:21:00,82.3,65.5,29.84,SSW,203,13.0,15.0,57,0.00,,,0.00,WeatherCatV1.15B25,2013-07-12 17:21:00,
2013-07-12 12:26:00,82.7,65.9,29.84,SSE,155,7.0,18.0,57,0.00,,,0.00,WeatherCatV1.15B25,2013-07-12 17:26:00,
2013-07-12 12:31:00,83.0,65.1,29.84,SSE,152,9.0,16.0,55,0.00,,,0.00,WeatherCatV1.15B25,2013-07-12 17:31:00,
2013-07-12 12:36:00,83.2,66.4,29.84,SSW,194,11.0,14.0,57,0.00,,,0.00,WeatherCatV1.15B25,2013-07-12 17:36:00,
2013-07-12 12:41:00,83.5,65.1,29.84,SSW,202,0.0,0.0,54,0.00,,,0.00,WeatherCatV1.15B25,2013-07-12 17:41:00,
2013-07-12 12:46:00,83.8,65.9,29.84,South,174,0.0,0.0,55,0.00,,,0.00,WeatherCatV1.15B25,2013-07-12 17:46:00,
2013-07-12 12:51:00,83.8,64.8,29.84,SE,140,0.0,0.0,53,0.00,,,0.00,WeatherCatV1.15B25,2013-07-12 17:51:00,
2013-07-12 12:56:00,83.9,66.0,29.84,SSE,153,0.0,11.0,55,0.00,,,0.00,WeatherCatV1.15B25,2013-07-12 17:56:00,
2013-07-12 13:01:00,84.1,65.6,29.84,SSE,155,0.0,0.0,54,0.00,,,0.00,WeatherCatV1.15B25,2013-07-12 18:01:00,
2013-07-12 13:06:00,84.3,65.8,29.84,SE,146,0.0,0.0,54,0.00,,,0.00,WeatherCatV1.15B25,2013-07-12 18:06:00,
2013-07-12 13:11:00,84.2,66.2,29.84,SE,143,0.0,0.0,55,0.00,,,0.00,WeatherCatV1.15B25,2013-07-12 18:11:00,
2013-07-12 13:16:00,84.5,65.5,29.84,South,173,0.0,0.0,53,0.00,,,0.00,WeatherCatV1.15B25,2013-07-12 18:16:00,
2013-07-12 13:21:00,84.7,65.6,29.84,South,188,0.0,0.0,53,0.00,,,0.00,WeatherCatV1.15B25,2013-07-12 18:21:00,
2013-07-12 13:26:00,85.0,64.8,29.84,WSW,245,0.0,0.0,51,0.00,,,0.00,WeatherCatV1.15B25,2013-07-12 18:26:00,
2013-07-12 13:31:00,85.3,66.2,29.84,SE,144,0.0,0.0,53,0.00,,,0.00,WeatherCatV1.15B25,2013-07-12 18:31:00,
2013-07-12 13:36:00,85.4,67.4,29.83,SSE,167,0.0,0.0,55,0.00,,,0.00,WeatherCatV1.15B25,2013-07-12 18:36:00,
2013-07-12 13:41:00,85.4,66.3,29.83,SSE,161,0.0,0.0,53,0.00,,,0.00,WeatherCatV1.15B25,2013-07-12 18:41:00,
2013-07-12 13:46:00,85.6,66.5,29.83,South,189,0.0,0.0,53,0.00,,,0.00,WeatherCatV1.15B25,2013-07-12 18:46:00,
2013-07-12 13:51:00,85.5,65.3,29.83,SSE,163,0.0,0.0,51,0.00,,,0.00,WeatherCatV1.15B25,2013-07-12 18:51:00,
2013-07-12 13:56:00,85.7,66.0,29.83,SSW,201,0.0,0.0,52,0.00,,,0.00,WeatherCatV1.15B25,2013-07-12 18:56:00,
2013-07-12 14:01:00,85.9,65.1,29.83,SSE,154,0.0,0.0,50,0.00,,,0.00,WeatherCatV1.15B25,2013-07-12 19:01:00,
2013-07-12 14:06:00,85.9,65.1,29.83,SSE,151,0.0,0.0,50,0.00,,,0.00,WeatherCatV1.15B25,2013-07-12 19:06:00,
2013-07-12 14:11:00,86.1,65.8,29.83,SE,138,0.0,0.0,51,0.00,,,0.00,WeatherCatV1.15B25,2013-07-12 19:11:00,
2013-07-12 14:16:00,86.3,64.9,29.83,SSE,168,0.0,0.0,49,0.00,,,0.00,WeatherCatV1.15B25,2013-07-12 19:16:00,
2013-07-12 14:21:00,86.4,63.7,29.83,SSE,159,0.0,0.0,47,0.00,,,0.00,WeatherCatV1.15B25,2013-07-12 19:21:00,
2013-07-12 14:26:00,86.5,63.8,29.83,SSE,164,0.0,0.0,47,0.00,,,0.00,WeatherCatV1.15B25,2013-07-12 19:26:00,
2013-07-12 14:31:00,86.5,64.4,29.82,SSE,149,0.0,0.0,48,0.00,,,0.00,WeatherCatV1.15B25,2013-07-12 19:31:00,
2013-07-12 14:36:00,86.4,65.5,29.82,ESE,120,0.0,0.0,50,0.00,,,0.00,WeatherCatV1.15B25,2013-07-12 19:36:00,
2013-07-12 14:41:00,86.4,63.1,29.82,SSW,209,0.0,0.0,46,0.00,,,0.00,WeatherCatV1.15B25,2013-07-12 19:41:00,
2013-07-12 14:46:00,86.5,63.8,29.82,SSE,165,0.0,0.0,47,0.00,,,0.00,WeatherCatV1.15B25,2013-07-12 19:46:00,
2013-07-12 14:51:00,86.8,63.5,29.82,SSE,150,0.0,0.0,46,0.00,,,0.00,WeatherCatV1.15B25,2013-07-12 19:51:00,
2013-07-12 14:56:00,86.6,64.5,29.82,SSE,148,0.0,0.0,48,0.00,,,0.00,WeatherCatV1.15B25,2013-07-12 19:56:00,
2013-07-12 15:01:00,86.6,65.1,29.82,SSE,150,0.0,0.0,49,0.00,,,0.00,WeatherCatV1.15B25,2013-07-12 20:01:00,
2013-07-12 15:06:00,86.6,63.9,29.81,SE,143,0.0,0.0,47,0.00,,,0.00,WeatherCatV1.15B25,2013-07-12 20:06:00,
2013-07-12 15:11:00,86.7,64.0,29.82,SSE,164,0.0,0.0,47,0.00,,,0.00,WeatherCatV1.15B25,2013-07-12 20:11:00,
2013-07-12 15:16:00,86.9,64.8,29.81,South,179,0.0,0.0,48,0.00,,,0.00,WeatherCatV1.15B25,2013-07-12 20:16:00,
2013-07-12 15:21:00,87.0,63.7,29.82,South,171,0.0,0.0,46,0.00,,,0.00,WeatherCatV1.15B25,2013-07-12 20:21:00,
2013-07-12 15:26:00,86.9,64.8,29.82,SSW,202,0.0,0.0,48,0.00,,,0.00,WeatherCatV1.15B25,2013-07-12 20:26:00,
2013-07-12 15:31:00,86.9,64.2,29.81,SE,134,0.0,0.0,47,0.00,,,0.00,WeatherCatV1.15B25,2013-07-12 20:31:00,
2013-07-12 15:36:00,86.9,64.2,29.81,South,179,0.0,0.0,47,0.00,,,0.00,WeatherCatV1.15B25,2013-07-12 20:36:00,
2013-07-12 15:41:00,87.1,65.6,29.81,SSE,148,0.0,0.0,49,0.00,,,0.00,WeatherCatV1.15B25,2013-07-12 20:41:00,
2013-07-12 15:46:00,87.0,64.9,29.81,SE,141,0.0,0.0,48,0.00,,,0.00,WeatherCatV1.15B25,2013-07-12 20:46:00,
2013-07-12 15:51:00,86.9,63.6,29.81,SSW,193,0.0,0.0,46,0.00,,,0.00,WeatherCatV1.15B25,2013-07-12 20:51:00,
2013-07-12 15:56:00,86.9,64.2,29.81,South,182,0.0,0.0,47,0.00,,,0.00,WeatherCatV1.15B25,2013-07-12 20:56:00,
2013-07-12 16:01:00,87.1,64.4,29.81,South,181,0.0,0.0,47,0.00,,,0.00,WeatherCatV1.15B25,2013-07-12 21:01:00,
2013-07-12 16:06:00,87.1,64.4,29.81,South,172,0.0,0.0,47,0.00,,,0.00,WeatherCatV1.15B25,2013-07-12 21:06:00,
2013-07-12 16:11:00,87.1,64.4,29.81,South,186,0.0,0.0,47,0.00,,,0.00,WeatherCatV1.15B25,2013-07-12 21:11:00,
2013-07-12 16:16:00,87.4,64.0,29.81,SE,133,0.0,0.0,46,0.00,,,0.00,WeatherCatV1.15B25,2013-07-12 21:16:00,
2013-07-12 16:21:00,87.1,63.8,29.81,South,179,0.0,0.0,46,0.00,,,0.00,WeatherCatV1.15B25,2013-07-12 21:21:00,
2013-07-12 16:26:00,87.2,63.9,29.81,SSE,156,0.0,0.0,46,0.00,,,0.00,WeatherCatV1.15B25,2013-07-12 21:26:00,
2013-07-12 16:31:00,87.3,64.6,29.81,SW,216,0.0,0.0,47,0.00,,,0.00,WeatherCatV1.15B25,2013-07-12 21:31:00,
2013-07-12 16:36:00,87.2,64.5,29.80,SE,139,0.0,0.0,47,0.00,,,0.00,WeatherCatV1.15B25,2013-07-12 21:36:00,
2013-07-12 16:41:00,87.3,65.2,29.80,South,172,0.0,0.0,48,0.00,,,0.00,WeatherCatV1.15B25,2013-07-12 21:41:00,
2013-07-12 16:46:00,87.3,65.2,29.80,SE,136,0.0,0.0,48,0.00,,,0.00,WeatherCatV1.15B25,2013-07-12 21:46:00,
2013-07-12 16:51:00,87.3,65.2,29.80,SSE,164,0.0,0.0,48,0.00,,,0.00,WeatherCatV1.15B25,2013-07-12 21:51:00,
2013-07-12 16:56:00,87.2,63.9,29.80,South,172,0.0,0.0,46,0.00,,,0.00,WeatherCatV1.15B25,2013-07-12 21:56:00,
2013-07-12 17:01:00,87.3,64.6,29.80,SSE,156,0.0,0.0,47,0.00,,,0.00,WeatherCatV1.15B25,2013-07-12 22:01:00,
2013-07-12 17:06:00,87.5,64.7,29.80,SE,146,0.0,0.0,47,0.00,,,0.00,WeatherCatV1.15B25,2013-07-12 22:06:00,
2013-07-12 17:11:00,87.4,64.7,29.80,South,185,0.0,0.0,47,0.00,,,0.00,WeatherCatV1.15B25,2013-07-12 22:11:00,
2013-07-12 17:16:00,87.4,64.7,29.80,South,190,0.0,0.0,47,0.00,,,0.00,WeatherCatV1.15B25,2013-07-12 22:16:00,
2013-07-12 17:21:00,87.3,64.6,29.80,SSE,167,0.0,0.0,47,0.00,,,0.00,WeatherCatV1.15B25,2013-07-12 22:21:00,
2013-07-12 17:26:00,87.2,63.9,29.79,SSE,153,0.0,0.0,46,0.00,,,0.00,WeatherCatV1.15B25,2013-07-12 22:26:00,
2013-07-12 17:31:00,87.1,63.8,29.79,South,169,0.0,0.0,46,0.00,,,0.00,WeatherCatV1.15B25,2013-07-12 22:31:00,
2013-07-12 17:36:00,87.1,64.4,29.79,SE,139,0.0,0.0,47,0.00,,,0.00,WeatherCatV1.15B25,2013-07-12 22:36:00,
2013-07-12 17:41:00,87.0,64.3,29.79,SSE,158,0.0,0.0,47,0.00,,,0.00,WeatherCatV1.15B25,2013-07-12 22:41:00,
2013-07-12 17:46:00,87.0,63.7,29.79,SSE,155,0.0,0.0,46,0.00,,,0.00,WeatherCatV1.15B25,2013-07-12 22:46:00,
2013-07-12 17:51:00,87.0,64.3,29.80,SSE,165,0.0,0.0,47,0.00,,,0.00,WeatherCatV1.15B25,2013-07-12 22:51:00,
2013-07-12 17:56:00,87.0,64.3,29.80,South,169,0.0,0.0,47,0.00,,,0.00,WeatherCatV1.15B25,2013-07-12 22:56:00,
2013-07-12 18:01:00,86.9,63.0,29.79,SSE,163,0.0,0.0,45,0.00,,,0.00,WeatherCatV1.15B25,2013-07-12 23:01:00,
2013-07-12 18:06:00,86.6,63.9,29.79,South,171,0.0,0.0,47,0.00,,,0.00,WeatherCatV1.15B25,2013-07-12 23:06:00,
2013-07-12 18:11:00,86.3,63.7,29.80,South,181,0.0,0.0,47,0.00,,,0.00,WeatherCatV1.15B25,2013-07-12 23:11:00,
2013-07-12 18:16:00,86.0,64.0,29.79,South,177,0.0,0.0,48,0.00,,,0.00,WeatherCatV1.15B25,2013-07-12 23:16:00,
2013-07-12 18:21:00,85.7,63.7,29.79,SSE,159,0.0,0.0,48,0.00,,,0.00,WeatherCatV1.15B25,2013-07-12 23:21:00,
2013-07-12 18:26:00,85.4,63.4,29.79,SE,127,0.0,0.0,48,0.00,,,0.00,WeatherCatV1.15B25,2013-07-12 23:26:00,
2013-07-12 18:31:00,85.0,63.1,29.79,South,171,0.0,0.0,48,0.00,,,0.00,WeatherCatV1.15B25,2013-07-12 23:31:00,
2013-07-12 18:36:00,84.7,62.8,29.78,SSE,157,0.0,0.0,48,0.00,,,0.00,WeatherCatV1.15B25,2013-07-12 23:36:00,
2013-07-12 18:41:00,84.7,62.8,29.79,SE,134,0.0,0.0,48,0.00,,,0.00,WeatherCatV1.15B25,2013-07-12 23:41:00,
2013-07-12 18:46:00,84.4,62.5,29.78,SSE,158,0.0,0.0,48,0.00,,,0.00,WeatherCatV1.15B25,2013-07-12 23:46:00,
2013-07-12 18:51:00,84.3,62.4,29.78,SE,141,0.0,0.0,48,0.00,,,0.00,WeatherCatV1.15B25,2013-07-12 23:51:00,
2013-07-12 18:56:00,84.2,62.9,29.78,SE,127,0.0,0.0,49,0.00,,,0.00,WeatherCatV1.15B25,2013-07-12 23:56:00,
2013-07-12 19:01:00,84.0,63.3,29.79,SSE,147,0.0,0.0,50,0.00,,,0.00,WeatherCatV1.15B25,2013-07-13 00:01:00,
2013-07-12 19:06:00,83.7,63.1,29.79,SE,129,0.0,0.0,50,0.00,,,0.00,WeatherCatV1.15B25,2013-07-13 00:06:00,
2013-07-12 19:11:00,83.6,63.5,29.79,South,175,0.0,0.0,51,0.00,,,0.00,WeatherCatV1.15B25,2013-07-13 00:11:00,
2013-07-12 19:16:00,83.4,63.3,29.79,SSE,148,0.0,0.0,51,0.00,,,0.00,WeatherCatV1.15B25,2013-07-13 00:16:00,
2013-07-12 19:21:00,83.2,63.7,29.79,SE,144,0.0,0.0,52,0.00,,,0.00,WeatherCatV1.15B25,2013-07-13 00:21:00,
2013-07-12 19:26:00,83.0,63.5,29.79,South,172,2.0,9.0,52,0.00,,,0.00,WeatherCatV1.15B25,2013-07-13 00:26:00,
2013-07-12 19:31:00,82.8,63.9,29.79,SE,143,0.0,0.0,53,0.00,,,0.00,WeatherCatV1.15B25,2013-07-13 00:31:00,
2013-07-12 19:36:00,82.8,63.9,29.79,SSE,153,0.0,6.0,53,0.00,,,0.00,WeatherCatV1.15B25,2013-07-13 00:36:00,
2013-07-12 19:41:00,82.9,64.0,29.79,SE,129,0.0,0.0,53,0.00,,,0.00,WeatherCatV1.15B25,2013-07-13 00:41:00,
2013-07-12 19:46:00,83.1,64.2,29.79,South,177,0.0,0.0,53,0.00,,,0.00,WeatherCatV1.15B25,2013-07-13 00:46:00,
2013-07-12 19:51:00,83.1,64.2,29.79,ESE,123,0.0,0.0,53,0.00,,,0.00,WeatherCatV1.15B25,2013-07-13 00:51:00,
2013-07-12 19:55:00,82.9,63.4,29.79,ESE,123,0.0,0.0,52,0.00,,,0.00,WeatherCatV1.15B25,2013-07-13 00:55:00,
2013-07-12 20:00:00,82.8,63.3,29.79,ESE,121,0.0,0.0,52,0.00,,,0.00,WeatherCatV1.15B25,2013-07-13 01:00:00,
2013-07-12 20:05:00,82.6,63.2,29.79,SE,140,0.0,0.0,52,0.00,,,0.00,WeatherCatV1.15B25,2013-07-13 01:05:00,
2013-07-12 20:10:00,82.4,63.0,29.79,SE,142,0.0,0.0,52,0.00,,,0.00,WeatherCatV1.15B25,2013-07-13 01:10:00,
2013-07-12 20:15:00,82.2,63.3,29.79,South,179,0.0,0.0,53,0.00,,,0.00,WeatherCatV1.15B25,2013-07-13 01:15:00,
2013-07-12 20:20:00,82.2,63.3,29.79,SE,141,0.0,0.0,53,0.00,,,0.00,WeatherCatV1.15B25,2013-07-13 01:20:00,
2013-07-12 20:25:00,82.0,63.2,29.78,SSE,152,0.0,0.0,53,0.00,,,0.00,WeatherCatV1.15B25,2013-07-13 01:25:00,
2013-07-12 20:30:00,82.0,62.6,29.78,SSE,161,0.0,0.0,52,0.00,,,0.00,WeatherCatV1.15B25,2013-07-13 01:30:00,
2013-07-12 20:35:00,81.9,63.1,29.78,SE,128,0.0,0.0,53,0.00,,,0.00,WeatherCatV1.15B25,2013-07-13 01:35:00,
2013-07-12 20:40:00,81.6,62.8,29.78,South,174,0.0,0.0,53,0.00,,,0.00,WeatherCatV1.15B25,2013-07-13 01:40:00,
2013-07-12 20:45:00,81.2,62.9,29.78,SE,144,0.0,0.0,54,0.00,,,0.00,WeatherCatV1.15B25,2013-07-13 01:45:00,
2013-07-12 20:50:00,81.2,62.4,29.78,South,184,0.0,0.0,53,0.00,,,0.00,WeatherCatV1.15B25,2013-07-13 01:50:00,
2013-07-12 20:55:00,81.1,62.3,29.78,SSE,162,0.0,0.0,53,0.00,,,0.00,WeatherCatV1.15B25,2013-07-13 01:55:00,
2013-07-12 21:00:00,80.9,62.7,29.78,SSE,150,0.0,0.0,54,0.00,,,0.00,WeatherCatV1.15B25,2013-07-13 02:00:00,
2013-07-12 21:05:00,80.6,62.4,29.79,South,177,0.0,0.0,54,0.00,,,0.00,WeatherCatV1.15B25,2013-07-13 02:05:00,
2013-07-12 21:10:00,80.4,62.7,29.79,SE,142,0.0,0.0,55,0.00,,,0.00,WeatherCatV1.15B25,2013-07-13 02:10:00,
2013-07-12 21:15:00,80.4,62.7,29.79,SSW,200,0.0,0.0,55,0.00,,,0.00,WeatherCatV1.15B25,2013-07-13 02:15:00,
2013-07-12 21:20:00,80.2,63.1,29.79,SE,138,0.0,0.0,56,0.00,,,0.00,WeatherCatV1.15B25,2013-07-13 02:20:00,
2013-07-12 21:25:00,79.9,62.8,29.79,SE,134,0.0,0.0,56,0.00,,,0.00,WeatherCatV1.15B25,2013-07-13 02:25:00,
2013-07-12 21:30:00,79.7,62.6,29.79,SE,145,0.0,0.0,56,0.00,,,0.00,WeatherCatV1.15B25,2013-07-13 02:30:00,
2013-07-12 21:35:00,79.7,62.6,29.79,SSE,165,0.0,0.0,56,0.00,,,0.00,WeatherCatV1.15B25,2013-07-13 02:35:00,
2013-07-12 21:40:00,79.6,63.0,29.79,SE,144,0.0,0.0,57,0.00,,,0.00,WeatherCatV1.15B25,2013-07-13 02:40:00,
2013-07-12 21:45:00,79.4,62.8,29.79,SSW,203,0.0,0.0,57,0.00,,,0.00,WeatherCatV1.15B25,2013-07-13 02:45:00,
2013-07-12 21:50:00,79.1,63.0,29.79,SSE,151,0.0,0.0,58,0.00,,,0.00,WeatherCatV1.15B25,2013-07-13 02:50:00,
2013-07-12 21:55:00,79.0,62.9,29.79,SE,143,0.0,0.0,58,0.00,,,0.00,WeatherCatV1.15B25,2013-07-13 02:55:00,
2013-07-12 22:00:00,78.8,62.8,29.79,WSW,244,0.0,0.0,58,0.00,,,0.00,WeatherCatV1.15B25,2013-07-13 03:00:00,
2013-07-12 22:05:00,78.7,63.1,29.79,SSW,212,0.0,0.0,59,0.00,,,0.00,WeatherCatV1.15B25,2013-07-13 03:05:00,
2013-07-12 22:10:00,78.5,63.0,29.79,SSE,147,0.0,0.0,59,0.00,,,0.00,WeatherCatV1.15B25,2013-07-13 03:10:00,
2013-07-12 22:15:00,78.4,62.9,29.79,SE,139,0.0,0.0,59,0.00,,,0.00,WeatherCatV1.15B25,2013-07-13 03:15:00,
2013-07-12 22:20:00,78.2,63.2,29.80,SSW,195,0.0,0.0,60,0.00,,,0.00,WeatherCatV1.15B25,2013-07-13 03:20:00,
2013-07-12 22:25:00,78.2,63.2,29.79,SE,146,0.0,0.0,60,0.00,,,0.00,WeatherCatV1.15B25,2013-07-13 03:25:00,
2013-07-12 22:30:00,78.1,63.1,29.79,South,186,0.0,0.0,60,0.00,,,0.00,WeatherCatV1.15B25,2013-07-13 03:30:00,
2013-07-12 22:35:00,78.0,63.0,29.79,SSW,197,0.0,0.0,60,0.00,,,0.00,WeatherCatV1.15B25,2013-07-13 03:35:00,
2013-07-12 22:40:00,77.8,63.3,29.80,South,184,0.0,0.0,61,0.00,,,0.00,WeatherCatV1.15B25,2013-07-13 03:40:00,
2013-07-12 22:45:00,77.6,63.1,29.80,SSW,199,0.0,0.0,61,0.00,,,0.00,WeatherCatV1.15B25,2013-07-13 03:45:00,
2013-07-12 22:50:00,77.5,63.0,29.80,South,174,0.0,0.0,61,0.00,,,0.00,WeatherCatV1.15B25,2013-07-13 03:50:00,
2013-07-12 22:55:00,77.5,63.0,29.80,SE,134,0.0,0.0,61,0.00,,,0.00,WeatherCatV1.15B25,2013-07-13 03:55:00,
2013-07-12 23:00:00,77.4,62.9,29.80,South,181,0.0,0.0,61,0.00,,,0.00,WeatherCatV1.15B25,2013-07-13 04:00:00,
2013-07-12 23:01:00,77.3,62.8,29.80,SSW,202,0.0,0.0,61,0.00,,,0.00,WeatherCatV1.15B25,2013-07-13 04:01:00,
2013-07-12 23:06:00,77.2,63.2,29.80,South,183,0.0,0.0,62,0.00,,,0.00,WeatherCatV1.15B25,2013-07-13 04:06:00,
2013-07-12 23:11:00,77.0,63.0,29.81,SSE,163,0.0,0.0,62,0.00,,,0.00,WeatherCatV1.15B25,2013-07-13 04:11:00,
2013-07-12 23:16:00,76.8,62.8,29.81,SSW,211,0.0,0.0,62,0.00,,,0.00,WeatherCatV1.15B25,2013-07-13 04:16:00,
2013-07-12 23:21:00,76.8,62.8,29.82,SSW,202,0.0,0.0,62,0.00,,,0.00,WeatherCatV1.15B25,2013-07-13 04:21:00,
2013-07-12 23:26:00,76.6,63.0,29.82,SSE,153,0.0,0.0,63,0.00,,,0.00,WeatherCatV1.15B25,2013-07-13 04:26:00,
2013-07-12 23:31:00,76.6,63.0,29.83,SSW,193,0.0,0.0,63,0.00,,,0.00,WeatherCatV1.15B25,2013-07-13 04:31:00,
2013-07-12 23:36:00,76.4,62.9,29.83,South,174,0.0,0.0,63,0.00,,,0.00,WeatherCatV1.15B25,2013-07-13 04:36:00,
2013-07-12 23:41:00,76.3,62.8,29.83,SSE,147,0.0,0.0,63,0.00,,,0.00,WeatherCatV1.15B25,2013-07-13 04:41:00,
2013-07-12 23:46:00,76.2,63.1,29.83,SSW,209,0.0,0.0,64,0.00,,,0.00,WeatherCatV1.15B25,2013-07-13 04:46:00,
2013-07-12 23:51:00,76.0,62.9,29.84,SSE,157,0.0,0.0,64,0.00,,,0.00,WeatherCatV1.15B25,2013-07-13 04:51:00,
2013-07-12 23:56:00,76.0,62.9,29.84,South,186,0.0,0.0,64,0.00,,,0.00,WeatherCatV1.15B25,2013-07-13 04:56:00,